Regional Weather Roundup
Issued by NWS

Home | Current Version | Previous Version | Graphics & Text | Print | Product List | Glossary On
Versions: 1 2 3 4 5 6 7 8 9 10 11 12 13 14 15 16 17 18 19 20 21 22 23 24 25 26 27 28 29 30 31 32 33 34 35 36 37 38 39 40 41 42 43 44 45 46 47 48 49 50
000
ASUS43 KLMK 302202
RWRKY
KENTUCKY REGIONAL WEATHER ROUNDUP
NATIONAL WEATHER SERVICE LOUISVILLE KY
600 PM EDT TUE JUN 30 2015

NOTE "FAIR" INDICATES FEW OR NO CLOUDS BELOW 12,000 FEET
WITH NO SIGNIFICANT WEATHER AND/OR OBSTRUCTIONS TO VISIBILITY.

KYZ001>023-026-027-061>063-070>075-302300-
WESTERN AND SOUTH CENTRAL KENTUCKY

CITY           SKY/WX    TMP DP  RH WIND       PRES   REMARKS
PADUCAH        SUNNY     85  68  56 W7        29.87S
HENDERSON      SUNNY     82  66  57 W8        29.84S
OWENSBORO      SUNNY     82  69  64 W9        29.85F
HOPKINSVILLE   MOSUNNY   82  68  61 W12       29.88S
BOWLING GREEN  SUNNY     83  64  52 SW12      29.87S
GLASGOW        NOT AVBL
$$

KYZ024-025-028>034-038-045-046-053-302300-
NORTH CENTRAL KENTUCKY

CITY           SKY/WX    TMP DP  RH WIND       PRES   REMARKS
LOUISVILLE/SDF MOSUNNY   84  66  54 W15       29.82R
LOUISVILLE/LOU MOSUNNY   83  65  54 W12G24    29.82R
FORT KNOX      NOT AVBL
$$

KYZ035>037-039>044-047>052-055>060-089>105-302300-
NORTHEAST KENTUCKY

CITY           SKY/WX    TMP DP  RH WIND       PRES   REMARKS
LEXINGTON      MOSUNNY   80  65  59 W14       29.84S
COVINGTON      TSTM      64  62  93 SW6       29.83F FOG
FRANKFORT      MOSUNNY   82  64  54 W9        29.83R
$$

KYZ054-064>069-076>088-106>120-302300-
SOUTHEAST KENTUCKY

CITY           SKY/WX    TMP DP  RH WIND       PRES   REMARKS
JACKSON        PTSUNNY   80  68  66 CALM      29.87F
LONDON         PTSUNNY   76  64  66 SW7       29.90R
SOMERSET       NOT AVBL
MIDDLESBORO    CLOUDY    69  66  89 CALM      29.94R
MONTICELLO     PTCLDY    78  69  73 SW7       29.93R
$$



USA.gov is the U.S. government's official web portal to all federal, state and local government web resources and services.